SPACEBEENZ-6 (46942 NORAD) Tracking and Keplerian Element Data
This shows tracking and keplerian element data for the satellite.
Feedback or suggestion? Click here.
Element | Value |
Catalog | 46942 |
Name | SPACEBEENZ-6 |
Epoch Orbit | 938 |
Epoch Day | 20.8292738 |
Epoch Year | 2021 |
RAAN | 160.1787 |
Inclination | 97.3738 |
Eccentricity | 0.0017419 |
Argument of Perigee | 83.2396 |
Mean Anonmoly | 277.0822 |
Mean Motion | 15.21351662 |
Decay Rate | 2.107E-05 |
L1 | 1 46942U 20085P 21020.82927380 .00002107 00000-0 96796-4 0 9995 |
L2 | 2 46942 97.3738 160.1787 0017419 83.2396 277.0822 15.21351662 9387 |
Live tracking and technical data element details for SPACEBEENZ-6 (NORAD 46942). SPACEBEENZ-6 can be tracked NOW for your location showing map with azimuth and elevation plus other details from your city location.
Track the satellite on the map from your city or location and see movement details for azimuth, elevation, latitude, longitude, range, height, and movement on the map or in text.
IsCatalogInMostPopularTable: catalog: 46942, numindb: 20
Update: records affected: 1
GetName: 46942 SPACEBEENZ-6
Hit Count: updated at: Fri, 22 Jan 2021 18:17:43 GMT